Weather History for St. Joseph, MO

Change the Weather History Date:

Monday, August 11, 2014

  Actual Average Record
Temperature  
Mean Temperature 69 °F 76 °F  
Max Temperature 78 °F 87 °F 105 °F (1934)
Min Temperature 60 °F 66 °F 48 °F (2004)
Degree Days  
Heating Degree Days 0 0  
Month to date heating degree days 0 0  
Since 1 June heating degree days 7 9  
Since 1 July heating degree days 6 1  
Cooling Degree Days 4 11  
Month to date cooling degree days 113 131  
Year to date cooling degree days 812 885  
Since 1 June cooling degree days 651 772  
Growing Degree Days 20 (Base 50)    
Moisture  
Dew Point 64 °F    
Average Humidity 77    
Maximum Humidity 100    
Minimum Humidity 54    
Precipitation  
Precipitation 0.00 in 0.13 in 1.05 in (1940)
Month to date precipitation 0.68 1.24  
Year to date precipitation 20.77 23.56  
Sea Level Pressure  
Sea Level Pressure 30.04 in    
Wind  
Wind Speed 8 mph (NNW)    
Max Wind Speed 22 mph    
Max Gust Speed 29 mph    
Visibility 5 miles    
Events Fog    
T = Trace of Precipitation, MM = Missing Value Source: NWS Daily Summary

Daily Weather History Graph

Daily Weather History Graph

Search for Another Location

Airport:

Trip Planner

Search our weather history database for the weather conditions in past years. The results will help you decide how hot, cold, wet, or windy it might be!

Date:

Astronomy

Aug. 11, 2014 Rise Set
Actual Time 6:27 AM CDT 8:21 PM CDT
Civil Twilight 5:58 AM CDT 8:50 PM CDT
Nautical Twilight 5:23 AM CDT 9:25 PM CDT
Astronomical Twilight 4:44 AM CDT 10:03 PM CDT
Moon 8:50 PM CDT (8/11) 7:33 AM CDT (8/11)
Length of Visible Light 14h 51m
Length of Day
13h 53m
Full, 99% of the Moon is Illuminated
Aug 11
Full
Aug 17
Last Quarter
Aug 25
New
Sep 2
First Quarter
Sep 8
Full

Hourly Weather History & Observations

Time (CDT) Temp. Dew Point Humidity Pressure Visibility Wind Dir Wind Speed Gust Speed Precip Events Conditions
12:53 AM 66.0 °F 66.0 °F 100% 30.04 in 10.0 mi Calm Calm - N/A   Clear
1:31 AM 64.9 °F 64.9 °F 100% 30.05 in 2.0 mi Calm Calm - N/A   Partly Cloudy
1:38 AM 64.9 °F 64.9 °F 100% 30.05 in 1.8 mi WNW 3.5 mph - N/A   Mostly Cloudy
1:45 AM 64.9 °F 64.0 °F 97% 30.04 in 0.5 mi NW 3.5 mph - N/A Fog Fog
1:53 AM 64.9 °F 64.9 °F 100% 30.03 in 0.2 mi Calm Calm - N/A Fog Fog
2:45 AM 64.9 °F 64.9 °F 100% 30.03 in 1.0 mi NNW 3.5 mph - N/A   Mist
2:53 AM 64.9 °F 64.9 °F 100% 30.02 in 0.8 mi NNE 3.5 mph - N/A   Mist
3:13 AM 64.9 °F 64.9 °F 100% 30.03 in 0.2 mi Calm Calm - N/A Fog Fog
3:42 AM 64.9 °F 64.9 °F 100% 30.03 in 1.0 mi Calm Calm - N/A   Overcast
3:53 AM 64.9 °F 64.9 °F 100% 30.01 in 0.8 mi Calm Calm - N/A   Overcast
4:02 AM 64.9 °F 64.9 °F 100% 30.03 in 0.5 mi Calm Calm - N/A Fog Fog
4:08 AM 64.9 °F 64.0 °F 97% 30.03 in 1.0 mi Calm Calm - N/A   Mostly Cloudy
4:13 AM 64.9 °F 64.0 °F 97% 30.03 in 3.0 mi Calm Calm - N/A   Mostly Cloudy
4:20 AM 64.0 °F 64.0 °F 100% 30.03 in 9.0 mi Calm Calm - N/A   Scattered Clouds
4:47 AM 64.4 °F 64.4 °F 100% 30.03 in 1.8 mi Calm Calm - N/A   Partly Cloudy
4:51 AM 64.4 °F 64.4 °F 100% 30.03 in 0.8 mi Calm Calm - N/A   Scattered Clouds
4:53 AM 64.9 °F 64.0 °F 97% 30.01 in 0.8 mi Calm Calm - N/A   Scattered Clouds
4:59 AM 64.9 °F 64.9 °F 100% 30.03 in 2.0 mi Calm Calm - N/A   Scattered Clouds
5:01 AM 64.9 °F 64.9 °F 100% 30.03 in 4.0 mi Calm Calm - N/A   Mostly Cloudy
5:14 AM 64.9 °F 64.9 °F 100% 30.03 in 1.8 mi Calm Calm - N/A   Mostly Cloudy
5:22 AM 64.9 °F 64.0 °F 97% 30.02 in 1.0 mi Calm Calm - N/A   Scattered Clouds
5:30 AM 64.9 °F 64.9 °F 100% 30.02 in 3.0 mi Calm Calm - N/A   Scattered Clouds
5:44 AM 64.9 °F 64.0 °F 97% 30.02 in 1.8 mi Calm Calm - N/A   Partly Cloudy
5:53 AM 64.9 °F 64.9 °F 100% 30.00 in 1.0 mi Calm Calm - N/A   Mist
5:58 AM 63.0 °F 63.0 °F 100% 30.02 in 0.8 mi Calm Calm - N/A   Mist
6:06 AM 63.0 °F 63.0 °F 100% 30.02 in 0.2 mi Calm Calm - N/A Fog Fog
6:18 AM 63.0 °F 63.0 °F 100% 30.02 in 1.0 mi Calm Calm - N/A   Mist
6:28 AM 63.0 °F 63.0 °F 100% 30.02 in 0.5 mi Calm Calm - N/A Fog Fog
6:35 AM 63.0 °F 63.0 °F 100% 30.02 in 1.0 mi Calm Calm - N/A   Overcast
6:42 AM 64.0 °F 64.0 °F 100% 30.03 in 3.0 mi NNW 3.5 mph - N/A   Overcast
6:53 AM 64.0 °F 64.0 °F 100% 30.01 in 9.0 mi North 3.5 mph - N/A   Overcast
7:53 AM 68.0 °F 68.0 °F 100% 30.04 in 6.0 mi NNW 6.9 mph - N/A   Overcast
8:53 AM 70.0 °F 68.0 °F 93% 30.06 in 6.0 mi North 9.2 mph - N/A   Overcast
9:32 AM 71.1 °F 68.0 °F 90% 30.08 in 9.0 mi NNW 10.4 mph - N/A   Overcast
9:53 AM 73.0 °F 69.1 °F 87% 30.07 in 10.0 mi NNW 9.2 mph - N/A   Overcast
10:11 AM 73.9 °F 69.1 °F 85% 30.09 in 10.0 mi NNW 11.5 mph - N/A   Scattered Clouds
10:53 AM 75.9 °F 68.0 °F 76% 30.07 in 10.0 mi North 16.1 mph - N/A   Partly Cloudy
11:53 AM 75.9 °F 62.1 °F 62% 30.08 in 10.0 mi NNW 16.1 mph 25.3 mph N/A   Scattered Clouds
12:53 PM 78.1 °F 64.0 °F 62% 30.07 in 10.0 mi NNW 16.1 mph - N/A   Partly Cloudy
1:53 PM 78.1 °F 63.0 °F 60% 30.07 in 10.0 mi NNW 13.8 mph - N/A   Partly Cloudy
2:53 PM 75.9 °F 60.1 °F 58% 30.06 in 10.0 mi North 16.1 mph 24.2 mph N/A   Scattered Clouds
3:53 PM 77.0 °F 61.0 °F 58% 30.06 in 10.0 mi NNW 17.3 mph 25.3 mph N/A   Clear
4:53 PM 75.9 °F 57.9 °F 54% 30.06 in 10.0 mi NNW 17.3 mph - N/A   Clear
5:53 PM 75.9 °F 57.9 °F 54% 30.05 in 10.0 mi NNW 10.4 mph - N/A   Partly Cloudy
6:53 PM 73.9 °F 59.0 °F 59% 30.04 in 10.0 mi NNW 12.7 mph - N/A   Partly Cloudy
7:53 PM 72.0 °F 57.0 °F 59% 30.04 in 10.0 mi NNW 12.7 mph - N/A   Clear
8:53 PM 64.0 °F 57.9 °F 80% 30.05 in 10.0 mi NW 5.8 mph - N/A   Clear
9:53 PM 64.9 °F 57.0 °F 75% 30.07 in 10.0 mi North 4.6 mph - N/A   Clear
10:53 PM 63.0 °F 57.9 °F 84% 30.07 in 10.0 mi Calm Calm - N/A   Clear
11:53 PM 60.1 °F 57.0 °F 90% 30.08 in 10.0 mi NNE 4.6 mph - N/A   Clear